,,,PA_Meas_PMT16A,,PR_Meas_QMR101_102,,RH_Meas_QMH101,,SR_Meas_QMS101,,TA_Meas_QMH101,,GenWind,,GenWind,
date,time,status,PA,status,PR,status,RH,status,SR,status,TA,status,DirAvg,status,SpdAvg,
2011-12-21, 00:00:04,VALID,998.088,VALID,0,VALID,92.3718,VALID,0,VALID,24.4623,VALID,89,VALID,0.392578,
2011-12-21, 00:01:04,VALID,998.083,VALID,0,VALID,92.5397,VALID,0,VALID,24.4623,VALID,110,VALID,0.760938,
2011-12-21, 00:02:04,VALID,998.072,VALID,0,VALID,92.6999,VALID,0,VALID,24.4995,VALID,110,VALID,0.660937,
2011-12-21, 00:03:04,VALID,998.053,VALID,0,VALID,92.8677,VALID,0,VALID,24.519,VALID,110,VALID,0.408984,
2011-12-21, 00:04:04,VALID,998.059,VALID,0,VALID,92.9135,VALID,0,VALID,24.5599,VALID,110,VALID,0.451172,
2011-12-21, 00:05:04,VALID,998.025,VALID,0,VALID,92.9211,VALID,0,VALID,24.558,VALID,112,VALID,0.894531,
2011-12-21, 00:06:04,VALID,997.992,VALID,0,VALID,92.944,VALID,0,VALID,24.5794,VALID,112,VALID,0.780859,
2011-12-21, 00:07:04,VALID,998.008,VALID,0,VALID,92.9898,VALID,0,VALID,24.5599,VALID,112,VALID,0.677734,
2011-12-21, 00:08:04,VALID,997.966,VALID,0,VALID,93.0585,VALID,0,VALID,24.5794,VALID,112,VALID,0.498828,
2011-12-21, 00:09:04,VALID,997.977,VALID,0,VALID,93.089,VALID,0,VALID,24.5599,VALID,112,VALID,0.489844,
2011-12-21, 00:10:04,VALID,997.975,VALID,0,VALID,93.0966,VALID,0,VALID,24.5385,VALID,112,VALID,0.409766,
2011-12-21, 00:11:04,VALID,998.002,VALID,0,VALID,93.1119,VALID,0,VALID,24.5385,VALID,112,VALID,0.525391,
2011-12-21, 00:12:04,VALID,997.956,VALID,0,VALID,93.0737,VALID,0,VALID,24.5404,VALID,112,VALID,0.532031,
2011-12-21, 00:13:04,VALID,997.994,VALID,0,VALID,93.0356,VALID,0,VALID,24.48,VALID,166,VALID,0.878516,
2011-12-21, 00:14:04,VALID,997.978,VALID,0,VALID,93.1043,VALID,0,VALID,24.5404,VALID,166,VALID,0.977734,
2011-12-21, 00:15:04,VALID,997.949,VALID,0,VALID,93.1729,VALID,0,VALID,24.5599,VALID,166,VALID,1.28047,
2011-12-21, 00:16:04,VALID,997.939,VALID,0,VALID,93.2416,VALID,0,VALID,24.5971,VALID,166,VALID,1.12461,
2011-12-21, 00:17:04,VALID,997.924,VALID,0,VALID,93.3103,VALID,0,VALID,24.6575,VALID,166,VALID,1.18438,
2011-12-21, 00:18:04,VALID,997.929,VALID,0,VALID,93.3789,VALID,0,VALID,24.6751,VALID,164,VALID,1.16445,
2011-12-21, 00:19:04,VALID,997.905,VALID,0,VALID,93.3789,VALID,0,VALID,24.6946,VALID,179,VALID,1.34492,
2011-12-21, 00:20:04,VALID,997.866,VALID,0,VALID,93.3789,VALID,0,VALID,24.7551,VALID,172,VALID,1.17656,
2011-12-21, 00:21:04,VALID,997.882,VALID,0,VALID,93.3637,VALID,0,VALID,24.7532,VALID,171,VALID,1.42383,
2011-12-21, 00:22:04,VALID,997.876,VALID,0,VALID,93.3484,VALID,0,VALID,24.7532,VALID,168,VALID,1.64063,
2011-12-21, 00:23:04,VALID,997.846,VALID,0,VALID,93.3103,VALID,0,VALID,24.7532,VALID,161,VALID,1.5375,
2011-12-21, 00:24:04,VALID,997.861,VALID,0,VALID,93.3026,VALID,0,VALID,24.7551,VALID,195,VALID,1.27695,
2011-12-21, 00:25:04,VALID,997.854,VALID,0,VALID,93.2263,VALID,0,VALID,24.7142,VALID,196,VALID,1.37539,
2011-12-21, 00:26:04,VALID,997.825,VALID,0,VALID,93.1424,VALID,0,VALID,24.6946,VALID,197,VALID,1.0332,
2011-12-21, 00:27:04,VALID,997.822,VALID,0,VALID,93.0356,VALID,0,VALID,24.6946,VALID,207,VALID,0.554297,
2011-12-21, 00:28:04,VALID,997.82,VALID,0,VALID,92.9135,VALID,0,VALID,24.6965,VALID,216,VALID,0.671875,
2011-12-21, 00:29:04,VALID,997.77,VALID,0,VALID,92.7914,VALID,0,VALID,24.6965,VALID,241,VALID,0.808594,
2011-12-21, 00:30:04,VALID,997.735,VALID,0,VALID,92.6465,VALID,0.104696,VALID,24.6556,VALID,233,VALID,0.371094,
2011-12-21, 00:31:04,VALID,997.684,VALID,0,VALID,92.5473,VALID,0,VALID,24.677,VALID,233,VALID,0.4625,
2011-12-21, 00:32:04,VALID,997.678,VALID,0,VALID,92.4557,VALID,0,VALID,24.6361,VALID,195,VALID,0.608984,
2011-12-21, 00:33:04,VALID,997.624,VALID,0,VALID,92.3947,VALID,0,VALID,24.5971,VALID,184,VALID,0.952344,
2011-12-21, 00:34:04,VALID,997.65,VALID,0,VALID,92.41,VALID,0,VALID,24.5971,VALID,182,VALID,0.759766,
2011-12-21, 00:35:04,VALID,997.659,VALID,0,VALID,92.41,VALID,0,VALID,24.5989,VALID,143,VALID,1.25508,
2011-12-21, 00:36:04,VALID,997.687,VALID,0,VALID,92.4481,VALID,0,VALID,24.5385,VALID,147,VALID,1.21445,
2011-12-21, 00:37:04,VALID,997.665,VALID,0,VALID,92.5244,VALID,0,VALID,24.4995,VALID,153,VALID,1.45742,
2011-12-21, 00:38:04,VALID,997.684,VALID,0,VALID,92.6388,VALID,0,VALID,24.4604,VALID,162,VALID,1.81797,
2011-12-21, 00:39:04,VALID,997.684,VALID,0,VALID,92.7762,VALID,0.104696,VALID,24.4604,VALID,170,VALID,1.70195,
2011-12-21, 00:40:04,VALID,997.689,VALID,0,VALID,92.9364,VALID,0,VALID,24.48,VALID,169,VALID,1.72344,
2011-12-21, 00:41:04,VALID,997.658,VALID,0,VALID,93.0432,VALID,0,VALID,24.48,VALID,173,VALID,1.88984,
2011-12-21, 00:42:04,VALID,997.656,VALID,0,VALID,93.1195,VALID,0,VALID,24.4818,VALID,175,VALID,1.7668,
2011-12-21, 00:43:04,VALID,997.644,VALID,0,VALID,93.1729,VALID,0,VALID,24.4818,VALID,173,VALID,1.53867,
2011-12-21, 00:44:04,VALID,997.612,VALID,0,VALID,93.2111,VALID,0,VALID,24.48,VALID,172,VALID,1.54453,
2011-12-21, 00:45:04,VALID,997.589,VALID,0,VALID,93.2492,VALID,0,VALID,24.4604,VALID,176,VALID,1.44883,
2011-12-21, 00:46:04,VALID,997.596,VALID,0,VALID,93.234,VALID,0,VALID,24.4409,VALID,164,VALID,1.31836,
2011-12-21, 00:47:04,VALID,997.561,VALID,0,VALID,93.2111,VALID,0,VALID,24.4214,VALID,162,VALID,1.20273,
2011-12-21, 00:48:04,VALID,997.511,VALID,0,VALID,93.1805,VALID,0,VALID,24.4428,VALID,166,VALID,1.57461,
2011-12-21, 00:49:04,VALID,997.522,VALID,0,VALID,93.1577,VALID,0,VALID,24.4214,VALID,162,VALID,1.01719,
2011-12-21, 00:50:04,VALID,997.494,VALID,0,VALID,93.1424,VALID,0,VALID,24.4428,VALID,167,VALID,1.08555,
2011-12-21, 00:51:04,VALID,997.465,VALID,0,VALID,93.15,VALID,0,VALID,24.4214,VALID,176,VALID,1.77344,
2011-12-21, 00:52:04,VALID,997.486,VALID,0,VALID,93.0966,VALID,0,VALID,24.4233,VALID,175,VALID,1.40898,
2011-12-21, 00:53:04,VALID,997.535,VALID,0,VALID,93.0737,VALID,0,VALID,24.4214,VALID,170,VALID,1.38047,
2011-12-21, 00:54:04,VALID,997.505,VALID,0,VALID,93.0203,VALID,0,VALID,24.4214,VALID,175,VALID,1.80078,
2011-12-21, 00:55:04,VALID,997.547,VALID,0,VALID,92.9593,VALID,0,VALID,24.4409,VALID,179,VALID,1.76484,
2011-12-21, 00:56:04,VALID,997.572,VALID,0,VALID,92.8372,VALID,0,VALID,24.4623,VALID,187,VALID,1.67344,
2011-12-21, 00:57:04,VALID,997.584,VALID,0,VALID,92.7151,VALID,0,VALID,24.4409,VALID,181,VALID,1.78359,
2011-12-21, 00:58:04,VALID,997.589,VALID,0,VALID,92.6465,VALID,0,VALID,24.4818,VALID,182,VALID,1.84258,
2011-12-21, 00:59:04,VALID,997.556,VALID,0,VALID,92.532,VALID,0,VALID,24.4409,VALID,180,VALID,1.61953,
2011-12-21, 01:00:04,VALID,997.554,VALID,0,VALID,92.4328,VALID,0,VALID,24.4623,VALID,175,VALID,1.78711,
2011-12-21, 01:01:04,VALID,997.563,VALID,0,VALID,92.3947,VALID,0,VALID,24.4409,VALID,188,VALID,1.2418,
2011-12-21, 01:02:04,VALID,997.56,VALID,0,VALID,92.3871,VALID,0,VALID,24.4409,VALID,210,VALID,0.836328,
2011-12-21, 01:03:04,VALID,997.542,VALID,0,VALID,92.4023,VALID,0,VALID,24.4428,VALID,203,VALID,0.995313,
2011-12-21, 01:04:04,VALID,997.513,VALID,0,VALID,92.3947,VALID,0,VALID,24.4214,VALID,210,VALID,0.963281,
2011-12-21, 01:05:04,VALID,997.462,VALID,0,VALID,92.3642,VALID,0,VALID,24.4409,VALID,204,VALID,0.657031,
2011-12-21, 01:06:04,VALID,997.457,VALID,0,VALID,92.2345,VALID,0,VALID,24.4428,VALID,205,VALID,1.25977,
2011-12-21, 01:07:04,VALID,997.452,VALID,0,VALID,92.0895,VALID,0.104696,VALID,24.4233,VALID,189,VALID,1.38711,
2011-12-21, 01:08:04,VALID,997.44,VALID,0,VALID,92.0132,VALID,0,VALID,24.4019,VALID,208,VALID,0.686328,
2011-12-21, 01:09:04,VALID,997.47,VALID,0,VALID,91.9598,VALID,0,VALID,24.4037,VALID,178,VALID,0.971094,
2011-12-21, 01:10:04,VALID,997.451,VALID,0,VALID,91.8911,VALID,0,VALID,24.4037,VALID,189,VALID,1.39688,
2011-12-21, 01:11:04,VALID,997.455,VALID,0,VALID,91.792,VALID,0,VALID,24.3824,VALID,205,VALID,1.41875,
2011-12-21, 01:12:04,VALID,997.438,VALID,0,VALID,91.7843,VALID,0,VALID,24.4037,VALID,189,VALID,1.025,
2011-12-21, 01:13:04,VALID,997.452,VALID,0,VALID,91.6928,VALID,0,VALID,24.4019,VALID,168,VALID,1.44883,
2011-12-21, 01:14:04,VALID,997.436,VALID,0,VALID,91.6928,VALID,0,VALID,24.3824,VALID,169,VALID,1.14102,
2011-12-21, 01:15:04,VALID,997.464,VALID,0,VALID,91.8683,VALID,0,VALID,24.4233,VALID,149,VALID,1.21992,
2011-12-21, 01:16:04,VALID,997.467,VALID,0,VALID,91.914,VALID,0,VALID,24.3824,VALID,152,VALID,0.848828,
2011-12-21, 01:17:04,VALID,997.479,VALID,0,VALID,91.914,VALID,0,VALID,24.3629,VALID,157,VALID,1.01523,
2011-12-21, 01:18:04,VALID,997.42,VALID,0,VALID,91.914,VALID,0,VALID,24.3647,VALID,155,VALID,0.967188,
2011-12-21, 01:19:04,VALID,997.406,VALID,0,VALID,91.9751,VALID,0,VALID,24.3238,VALID,155,VALID,0.788672,
2011-12-21, 01:20:04,VALID,997.398,VALID,0,VALID,92.0209,VALID,0,VALID,24.3257,VALID,155,VALID,0.777344,
2011-12-21, 01:21:04,VALID,997.384,VALID,0,VALID,92.0514,VALID,0,VALID,24.2848,VALID,155,VALID,0.689844,
2011-12-21, 01:22:04,VALID,997.369,VALID,0,VALID,92.0743,VALID,0,VALID,24.2866,VALID,155,VALID,0.735156,
2011-12-21, 01:23:04,VALID,997.386,VALID,0,VALID,92.1048,VALID,0,VALID,24.2671,VALID,155,VALID,0.741797,
2011-12-21, 01:24:04,VALID,997.384,VALID,0,VALID,92.0666,VALID,0,VALID,24.2458,VALID,155,VALID,0.580469,
2011-12-21, 01:25:05,VALID,997.401,VALID,0,VALID,92.0895,VALID,0,VALID,24.2263,VALID,155,VALID,0.613281,
2011-12-21, 01:26:05,VALID,997.433,VALID,0,VALID,92.0895,VALID,0,VALID,24.2476,VALID,155,VALID,0.489453,
2011-12-21, 01:27:04,VALID,997.443,VALID,0,VALID,92.1429,VALID,0,VALID,24.2476,VALID,155,VALID,0,
2011-12-21, 01:28:05,VALID,997.438,VALID,0,VALID,92.1658,VALID,0,VALID,24.2263,VALID,155,VALID,0,
2011-12-21, 01:29:05,VALID,997.445,VALID,0,VALID,92.2345,VALID,0,VALID,24.2067,VALID,155,VALID,0,
2011-12-21, 01:30:05,VALID,997.396,VALID,0,VALID,92.2879,VALID,0,VALID,24.2067,VALID,155,VALID,0,
2011-12-21, 01:31:05,VALID,997.407,VALID,0,VALID,92.326,VALID,0,VALID,24.2067,VALID,140,VALID,0.715234,
2011-12-21, 01:32:05,VALID,997.435,VALID,0,VALID,92.3718,VALID,0,VALID,24.2281,VALID,140,VALID,0.559766,
2011-12-21, 01:33:05,VALID,997.425,VALID,0,VALID,92.4023,VALID,0,VALID,24.2263,VALID,140,VALID,0.492578,
2011-12-21, 01:34:05,VALID,997.376,VALID,0,VALID,92.3718,VALID,0,VALID,24.2263,VALID,140,VALID,0.609766,
2011-12-21, 01:35:05,VALID,997.403,VALID,0,VALID,92.3489,VALID,0,VALID,24.2067,VALID,140,VALID,0.617969,
2011-12-21, 01:36:05,VALID,997.379,VALID,0,VALID,92.3566,VALID,0,VALID,24.2067,VALID,140,VALID,0.510156,
2011-12-21, 01:37:05,VALID,997.402,VALID,0,VALID,92.4176,VALID,0,VALID,24.2086,VALID,140,VALID,0.537891,
2011-12-21, 01:38:05,VALID,997.382,VALID,0,VALID,92.5091,VALID,0,VALID,24.2067,VALID,140,VALID,0.551172,
2011-12-21, 01:39:05,VALID,997.39,VALID,0,VALID,92.5397,VALID,0,VALID,24.2086,VALID,120,VALID,0.675391,
2011-12-21, 01:40:05,VALID,997.398,VALID,0,VALID,92.6007,VALID,0,VALID,24.1891,VALID,112,VALID,0.695703,
2011-12-21, 01:41:05,VALID,997.359,VALID,0,VALID,92.6923,VALID,0,VALID,24.1891,VALID,106,VALID,0.650781,
2011-12-21, 01:42:05,VALID,997.417,VALID,0,VALID,92.7991,VALID,0,VALID,24.1482,VALID,106,VALID,0.575391,
2011-12-21, 01:43:05,VALID,997.424,VALID,0,VALID,92.9059,VALID,0,VALID,24.1696,VALID,106,VALID,0.422656,
2011-12-21, 01:44:05,VALID,997.428,VALID,0,VALID,92.9593,VALID,0,VALID,24.15,VALID,96,VALID,0.738281,
2011-12-21, 01:45:05,VALID,997.448,VALID,0,VALID,93.028,VALID,0,VALID,24.15,VALID,51,VALID,0.884375,
2011-12-21, 01:46:05,VALID,997.463,VALID,0,VALID,93.0661,VALID,0,VALID,24.1092,VALID,35,VALID,1.07461,
2011-12-21, 01:47:05,VALID,997.471,VALID,0,VALID,93.1653,VALID,0,VALID,24.1287,VALID,27,VALID,1.10586,
2011-12-21, 01:48:05,VALID,997.479,VALID,0,VALID,93.2416,VALID,0,VALID,24.1287,VALID,27,VALID,0.998438,
2011-12-21, 01:49:05,VALID,997.463,VALID,0,VALID,93.295,VALID,0,VALID,24.1287,VALID,27,VALID,0.709766,
2011-12-21, 01:50:05,VALID,997.462,VALID,0,VALID,93.356,VALID,0.104696,VALID,24.1287,VALID,27,VALID,0.660156,
2011-12-21, 01:51:05,VALID,997.453,VALID,0,VALID,93.3942,VALID,0,VALID,24.1092,VALID,27,VALID,0.571094,
2011-12-21, 01:52:05,VALID,997.454,VALID,0,VALID,93.4476,VALID,0,VALID,24.1287,VALID,27,VALID,0.462891,
2011-12-21, 01:53:05,VALID,997.452,VALID,0,VALID,93.4628,VALID,0,VALID,24.1092,VALID,27,VALID,0.566406,
2011-12-21, 01:54:05,VALID,997.48,VALID,0,VALID,93.4857,VALID,0,VALID,24.1092,VALID,27,VALID,0.3875,
2011-12-21, 01:55:05,VALID,997.476,VALID,0,VALID,93.5239,VALID,0,VALID,24.1092,VALID,27,VALID,0.431641,
2011-12-21, 01:56:05,VALID,997.481,VALID,0,VALID,93.5315,VALID,0,VALID,24.1092,VALID,27,VALID,0.44375,
2011-12-21, 01:57:05,VALID,997.436,VALID,0,VALID,93.5315,VALID,0,VALID,24.1092,VALID,27,VALID,0.375781,
2011-12-21, 01:58:05,VALID,997.421,VALID,0,VALID,93.5468,VALID,0,VALID,24.1092,VALID,27,VALID,0.394531,
2011-12-21, 01:59:05,VALID,997.399,VALID,0,VALID,93.562,VALID,0,VALID,24.1287,VALID,42,VALID,0.737109,
2011-12-21, 02:00:05,VALID,997.396,VALID,0,VALID,93.6154,VALID,0,VALID,24.1482,VALID,49,VALID,0.949219,
2011-12-21, 02:01:05,VALID,997.35,VALID,0,VALID,93.6231,VALID,0,VALID,24.1482,VALID,49,VALID,0.748828,
2011-12-21, 02:02:05,VALID,997.331,VALID,0,VALID,93.6383,VALID,0,VALID,24.1677,VALID,49,VALID,0.667188,
2011-12-21, 02:03:05,VALID,997.296,VALID,0,VALID,93.646,VALID,0,VALID,24.1482,VALID,49,VALID,0,
2011-12-21, 02:04:05,VALID,997.259,VALID,0,VALID,93.646,VALID,0,VALID,24.1696,VALID,49,VALID,0,
2011-12-21, 02:05:05,VALID,997.242,VALID,0,VALID,93.6383,VALID,0,VALID,24.1482,VALID,49,VALID,0,
2011-12-21, 02:06:05,VALID,997.253,VALID,0,VALID,93.6536,VALID,0,VALID,24.1482,VALID,49,VALID,0,
2011-12-21, 02:07:05,VALID,997.211,VALID,0,VALID,93.6688,VALID,0,VALID,24.15,VALID,49,VALID,0,
2011-12-21, 02:08:05,VALID,997.225,VALID,0,VALID,93.6917,VALID,0,VALID,24.1305,VALID,49,VALID,0,
2011-12-21, 02:09:05,VALID,997.263,VALID,0,VALID,93.6765,VALID,0,VALID,24.1092,VALID,49,VALID,0,
2011-12-21, 02:10:05,VALID,997.255,VALID,0,VALID,93.6994,VALID,0,VALID,24.1092,VALID,49,VALID,0,
2011-12-21, 02:11:05,VALID,997.23,VALID,0,VALID,93.7299,VALID,0,VALID,24.1287,VALID,49,VALID,0,
2011-12-21, 02:12:05,VALID,997.242,VALID,0,VALID,93.7375,VALID,0,VALID,24.1305,VALID,49,VALID,0,
2011-12-21, 02:13:05,VALID,997.228,VALID,0,VALID,93.7757,VALID,0,VALID,24.15,VALID,49,VALID,0,
2011-12-21, 02:14:05,VALID,997.203,VALID,0,VALID,93.7604,VALID,0,VALID,24.1305,VALID,55,VALID,0,
2011-12-21, 02:15:05,VALID,997.166,VALID,0,VALID,93.7909,VALID,0,VALID,24.15,VALID,61,VALID,0,
2011-12-21, 02:16:05,VALID,997.153,VALID,0,VALID,93.8062,VALID,0,VALID,24.1092,VALID,61,VALID,0,
2011-12-21, 02:17:05,VALID,997.139,VALID,0,VALID,93.7833,VALID,0,VALID,24.1305,VALID,61,VALID,0,
2011-12-21, 02:18:05,VALID,997.127,VALID,0,VALID,93.7604,VALID,0,VALID,24.0897,VALID,61,VALID,0,
2011-12-21, 02:19:05,VALID,997.1,VALID,0,VALID,93.7757,VALID,0,VALID,24.0701,VALID,60,VALID,0,
2011-12-21, 02:20:05,VALID,997.066,VALID,0,VALID,93.7909,VALID,0,VALID,24.072,VALID,46,VALID,0,
2011-12-21, 02:21:05,VALID,997.059,VALID,0,VALID,93.7985,VALID,0,VALID,24.0329,VALID,40,VALID,0,
2011-12-21, 02:22:05,VALID,997.045,VALID,0,VALID,93.7757,VALID,0,VALID,23.9921,VALID,40,VALID,0,
2011-12-21, 02:23:05,VALID,997.019,VALID,0,VALID,93.8138,VALID,0,VALID,24.0134,VALID,40,VALID,0,
2011-12-21, 02:24:05,VALID,997.024,VALID,0,VALID,93.8214,VALID,0,VALID,23.9939,VALID,40,VALID,0,
2011-12-21, 02:25:05,VALID,996.977,VALID,0,VALID,93.8672,VALID,0,VALID,24.0134,VALID,40,VALID,0,
2011-12-21, 02:26:05,VALID,996.98,VALID,0,VALID,93.8748,VALID,0,VALID,24.0134,VALID,40,VALID,0,
2011-12-21, 02:27:05,VALID,996.979,VALID,0,VALID,93.8901,VALID,0,VALID,23.9939,VALID,40,VALID,0,
2011-12-21, 02:28:05,VALID,997.003,VALID,0,VALID,93.913,VALID,0,VALID,23.9726,VALID,40,VALID,0,
2011-12-21, 02:29:05,VALID,996.973,VALID,0,VALID,93.913,VALID,0,VALID,23.9726,VALID,40,VALID,0,
2011-12-21, 02:30:05,VALID,996.959,VALID,0,VALID,93.9435,VALID,0,VALID,23.9726,VALID,40,VALID,0,
2011-12-21, 02:31:05,VALID,996.953,VALID,0,VALID,93.9588,VALID,0,VALID,24.0134,VALID,2,VALID,0,
2011-12-21, 02:32:05,VALID,996.935,VALID,0,VALID,93.9893,VALID,0,VALID,23.9921,VALID,2,VALID,0,
2011-12-21, 02:33:05,VALID,996.908,VALID,0,VALID,94.0122,VALID,0,VALID,24.0134,VALID,2,VALID,0,
2011-12-21, 02:34:05,VALID,996.909,VALID,0,VALID,93.9969,VALID,0,VALID,23.9921,VALID,2,VALID,0,
2011-12-21, 02:35:05,VALID,996.922,VALID,0,VALID,94.0198,VALID,0,VALID,24.0134,VALID,2,VALID,0,
2011-12-21, 02:36:05,VALID,996.889,VALID,0,VALID,94.0427,VALID,0,VALID,23.9939,VALID,2,VALID,0,
2011-12-21, 02:37:05,VALID,996.921,VALID,0,VALID,94.0351,VALID,0,VALID,23.9921,VALID,2,VALID,0,
2011-12-21, 02:38:05,VALID,996.911,VALID,0,VALID,94.0656,VALID,0,VALID,23.9726,VALID,2,VALID,0,
2011-12-21, 02:39:05,VALID,996.908,VALID,0,VALID,94.058,VALID,0,VALID,23.9726,VALID,2,VALID,0,
2011-12-21, 02:40:05,VALID,996.904,VALID,0,VALID,94.0808,VALID,0,VALID,23.9939,VALID,2,VALID,0,
2011-12-21, 02:41:05,VALID,996.911,VALID,0,VALID,94.058,VALID,0.104696,VALID,23.9726,VALID,2,VALID,0,
2011-12-21, 02:42:05,VALID,996.871,VALID,0,VALID,94.0808,VALID,0,VALID,23.9549,VALID,38,VALID,0,
2011-12-21, 02:43:05,VALID,996.884,VALID,0,VALID,94.0656,VALID,0,VALID,23.9531,VALID,45,VALID,0.320703,
2011-12-21, 02:44:05,VALID,996.877,VALID,0,VALID,94.0961,VALID,0,VALID,23.9726,VALID,49,VALID,0.922656,
2011-12-21, 02:45:05,VALID,996.911,VALID,0,VALID,94.0961,VALID,0,VALID,23.9531,VALID,49,VALID,0.824609,
2011-12-21, 02:46:05,VALID,996.909,VALID,0,VALID,94.1037,VALID,0,VALID,23.9531,VALID,49,VALID,0.636719,
2011-12-21, 02:47:05,VALID,996.917,VALID,0,VALID,94.1037,VALID,0,VALID,23.9531,VALID,49,VALID,0.628906,
2011-12-21, 02:48:05,VALID,996.896,VALID,0,VALID,94.1114,VALID,0,VALID,23.9744,VALID,49,VALID,0.603906,
2011-12-21, 02:49:05,VALID,996.912,VALID,0,VALID,94.119,VALID,0,VALID,23.9549,VALID,49,VALID,0.463281,
2011-12-21, 02:50:05,VALID,996.892,VALID,0,VALID,94.0961,VALID,0,VALID,23.9531,VALID,49,VALID,0.770312,
2011-12-21, 02:51:05,VALID,996.893,VALID,0,VALID,94.1114,VALID,0,VALID,23.9531,VALID,49,VALID,0.90625,
2011-12-21, 02:52:05,VALID,996.922,VALID,0,VALID,94.1037,VALID,0,VALID,23.9531,VALID,53,VALID,0.781641,
2011-12-21, 02:53:05,VALID,996.906,VALID,0,VALID,94.1266,VALID,0,VALID,23.9531,VALID,53,VALID,0.7,
2011-12-21, 02:54:05,VALID,996.935,VALID,0,VALID,94.1343,VALID,0,VALID,23.9939,VALID,53,VALID,0.617188,
2011-12-21, 02:55:05,VALID,996.935,VALID,0,VALID,94.1343,VALID,0,VALID,23.9726,VALID,53,VALID,0.602344,
2011-12-21, 02:56:05,VALID,996.944,VALID,0,VALID,94.119,VALID,0,VALID,23.9726,VALID,53,VALID,0.580078,
2011-12-21, 02:57:05,VALID,996.989,VALID,0,VALID,94.119,VALID,0,VALID,23.9921,VALID,53,VALID,0.65625,
2011-12-21, 02:58:05,VALID,996.989,VALID,0,VALID,94.1114,VALID,0,VALID,23.9726,VALID,53,VALID,0.623047,
2011-12-21, 02:59:05,VALID,997.001,VALID,0,VALID,94.1114,VALID,0,VALID,23.9939,VALID,53,VALID,0.608594,
2011-12-21, 03:00:05,VALID,996.986,VALID,0,VALID,94.1114,VALID,0,VALID,23.9726,VALID,53,VALID,0.315625,
2011-12-21, 03:01:05,VALID,997.032,VALID,0,VALID,94.0961,VALID,0,VALID,23.9726,VALID,53,VALID,0.210938,
2011-12-21, 03:02:05,VALID,997.009,VALID,0,VALID,94.0961,VALID,0,VALID,23.9531,VALID,53,VALID,0,
2011-12-21, 03:03:05,VALID,997.015,VALID,0,VALID,94.0885,VALID,0,VALID,23.9744,VALID,53,VALID,0.09375,
2011-12-21, 03:04:05,VALID,997.041,VALID,0,VALID,94.0656,VALID,0,VALID,23.9549,VALID,53,VALID,0,
2011-12-21, 03:05:05,VALID,997.055,VALID,0,VALID,94.0885,VALID,0,VALID,23.9549,VALID,53,VALID,0,
2011-12-21, 03:06:05,VALID,997.052,VALID,0,VALID,94.0808,VALID,0,VALID,23.9549,VALID,53,VALID,0,
2011-12-21, 03:07:05,VALID,997.08,VALID,0,VALID,94.0808,VALID,0,VALID,23.9531,VALID,53,VALID,0,
2011-12-21, 03:08:05,VALID,997.1,VALID,0,VALID,94.0732,VALID,0,VALID,23.9744,VALID,53,VALID,0,
2011-12-21, 03:09:05,VALID,997.131,VALID,0,VALID,94.0961,VALID,0,VALID,23.9939,VALID,53,VALID,0,
2011-12-21, 03:10:05,VALID,997.132,VALID,0,VALID,94.0961,VALID,0,VALID,23.9531,VALID,53,VALID,0,
2011-12-21, 03:11:05,VALID,997.131,VALID,0,VALID,94.0961,VALID,0,VALID,23.9531,VALID,53,VALID,0,
2011-12-21, 03:12:05,VALID,997.118,VALID,0,VALID,94.0885,VALID,0,VALID,23.9531,VALID,53,VALID,0,
2011-12-21, 03:13:05,VALID,997.106,VALID,0,VALID,94.0808,VALID,0,VALID,23.9531,VALID,53,VALID,0,
2011-12-21, 03:14:05,VALID,997.088,VALID,0,VALID,94.0961,VALID,0,VALID,23.9531,VALID,53,VALID,0,
2011-12-21, 03:15:05,VALID,997.108,VALID,0,VALID,94.1037,VALID,0,VALID,23.9531,VALID,53,VALID,0,
2011-12-21, 03:16:05,VALID,997.106,VALID,0,VALID,94.0808,VALID,0,VALID,23.9726,VALID,53,VALID,0,
2011-12-21, 03:17:05,VALID,997.094,VALID,0,VALID,94.0885,VALID,0,VALID,23.9531,VALID,53,VALID,0,
2011-12-21, 03:18:05,VALID,997.11,VALID,0,VALID,94.1037,VALID,0,VALID,23.9531,VALID,53,VALID,0,
2011-12-21, 03:19:05,VALID,997.088,VALID,0,VALID,94.0961,VALID,0,VALID,23.9726,VALID,53,VALID,0,
2011-12-21, 03:20:05,VALID,997.08,VALID,0,VALID,94.1114,VALID,0,VALID,23.9726,VALID,53,VALID,0,
2011-12-21, 03:21:05,VALID,997.069,VALID,0,VALID,94.1114,VALID,0,VALID,23.9921,VALID,53,VALID,0,
2011-12-21, 03:22:05,VALID,997.106,VALID,0,VALID,94.119,VALID,0,VALID,23.9921,VALID,67,VALID,0,
2011-12-21, 03:23:05,VALID,997.127,VALID,0,VALID,94.0885,VALID,0,VALID,24.0134,VALID,67,VALID,0,
2011-12-21, 03:24:05,VALID,997.141,VALID,0,VALID,94.119,VALID,0,VALID,23.9921,VALID,67,VALID,0,
2011-12-21, 03:25:05,VALID,997.139,VALID,0,VALID,94.1343,VALID,0,VALID,23.9921,VALID,67,VALID,0,
2011-12-21, 03:26:05,VALID,997.161,VALID,0,VALID,94.1114,VALID,0,VALID,23.9921,VALID,67,VALID,0.783203,
2011-12-21, 03:27:05,VALID,997.17,VALID,0,VALID,94.1037,VALID,0,VALID,24.0134,VALID,67,VALID,0.970703,
2011-12-21, 03:28:05,VALID,997.187,VALID,0,VALID,94.1266,VALID,0.104696,VALID,23.9726,VALID,67,VALID,0.894922,
2011-12-21, 03:29:05,VALID,997.17,VALID,0,VALID,94.119,VALID,0,VALID,23.9726,VALID,67,VALID,0.716016,
2011-12-21, 03:30:05,VALID,997.216,VALID,0,VALID,94.0885,VALID,0,VALID,23.9939,VALID,67,VALID,0.547266,
2011-12-21, 03:31:05,VALID,997.188,VALID,0,VALID,94.1114,VALID,0,VALID,23.9726,VALID,67,VALID,0.319141,
2011-12-21, 03:32:05,VALID,997.223,VALID,0,VALID,94.1114,VALID,0,VALID,23.9726,VALID,67,VALID,0.292188,
2011-12-21, 03:33:05,VALID,997.231,VALID,0,VALID,94.1114,VALID,0,VALID,23.9531,VALID,67,VALID,0.202344,
2011-12-21, 03:34:05,VALID,997.231,VALID,0,VALID,94.1114,VALID,0,VALID,23.9531,VALID,67,VALID,0.240625,
2011-12-21, 03:35:05,VALID,997.235,VALID,0,VALID,94.1037,VALID,0,VALID,23.9531,VALID,67,VALID,0,
2011-12-21, 03:36:05,VALID,997.244,VALID,0,VALID,94.1037,VALID,0,VALID,23.9531,VALID,67,VALID,0,
2011-12-21, 03:37:05,VALID,997.261,VALID,0,VALID,94.119,VALID,0,VALID,23.9531,VALID,67,VALID,0,
2011-12-21, 03:38:05,VALID,997.251,VALID,0,VALID,94.1114,VALID,0,VALID,23.9531,VALID,67,VALID,0,
2011-12-21, 03:39:05,VALID,997.285,VALID,0,VALID,94.1114,VALID,0,VALID,23.9726,VALID,67,VALID,0,
2011-12-21, 03:40:05,VALID,997.276,VALID,0,VALID,94.1266,VALID,0,VALID,23.9531,VALID,67,VALID,0,
2011-12-21, 03:41:05,VALID,997.305,VALID,0,VALID,94.119,VALID,0,VALID,23.9726,VALID,67,VALID,0,
2011-12-21, 03:42:05,VALID,997.344,VALID,0,VALID,94.119,VALID,0,VALID,23.9531,VALID,67,VALID,0,
2011-12-21, 03:43:05,VALID,997.342,VALID,0,VALID,94.1495,VALID,0,VALID,23.9726,VALID,67,VALID,0,
2011-12-21, 03:44:05,VALID,997.362,VALID,0,VALID,94.1343,VALID,0,VALID,23.9726,VALID,67,VALID,0,
2011-12-21, 03:45:05,VALID,997.373,VALID,0,VALID,94.1343,VALID,0,VALID,23.9531,VALID,67,VALID,0,
2011-12-21, 03:46:05,VALID,997.429,VALID,0,VALID,94.1343,VALID,0,VALID,23.9726,VALID,67,VALID,0,
2011-12-21, 03:47:05,VALID,997.387,VALID,0,VALID,94.1343,VALID,0,VALID,23.9726,VALID,67,VALID,0,
2011-12-21, 03:48:05,VALID,997.395,VALID,0,VALID,94.1343,VALID,0,VALID,23.9939,VALID,67,VALID,0,
2011-12-21, 03:49:05,VALID,997.418,VALID,0,VALID,94.1343,VALID,0,VALID,23.9921,VALID,67,VALID,0,
2011-12-21, 03:50:05,VALID,997.413,VALID,0,VALID,94.1419,VALID,0,VALID,23.9726,VALID,67,VALID,0,
2011-12-21, 03:51:05,VALID,997.398,VALID,0,VALID,94.1495,VALID,0,VALID,24.0116,VALID,67,VALID,0,